Regional Weather Roundup
Issued by NWS Northern Indiana

Home | Current Version | Previous Version | Text Only | Print | Product List | Glossary Off
Versions: 1 2 3 4 5 6 7 8 9 10 11 12 13 14 15 16 17 18 19 20 21 22 23 24 25 26 27 28 29 30 31 32 33 34 35 36 37 38 39 40 41 42 43 44 45 46 47 48 49 50

000
ASUS43 KIWX 171810
RWRIWX

KIWX WEATHER ROUNDUP
NATIONAL WEATHER SERVICE NORTHERN INDIANA
100 PM EST FRI NOV 17 2017

NOTE: "FAIR" INDICATES FEW OR NO CLOUDS BELOW 12,000 FEET WITH NO
SIGNIFICANT WEATHER AND/OR OBSTRUCTIONS TO VISIBILITY.

* THESE STATIONS ARE NOT UNDER NWS QUALITY CONTROL. THEY ALSO MAY NOT
  REPORT WEATHER SUCH AS PRECIPITATION OR FOG.

INZ001>027-171900-
NORTHERN INDIANA

CITY           SKY/WX    TMP DP  RH WIND       PRES   REMARKS
GARY*          CLOUDY    43  32  65 SE10      29.97F
VALPARAISO     CLOUDY    44  33  65 S16G22    29.99F
6HR MIN TEMP:  37; 6HR MAX TEMP:  44;

MICHIGAN CITY* PTSUNNY   43  32  65 SE12      29.98F
LAPORTE*       CLOUDY    42  32  68 SE14      29.99F
6HR MIN TEMP:  34; 6HR MAX TEMP:  42;

KNOX*          CLOUDY    43  32  65 S18       30.00F
SOUTH BEND     CLOUDY    42  34  73 SE18      30.01F
6HR MIN TEMP:  34; 6HR MAX TEMP:  42;

ELKHART*       MOSUNNY   39  32  75 S12       30.08
GOSHEN         CLOUDY    44  32  62 SE17      30.03F
6HR MIN TEMP:  35; 6HR MAX TEMP:  44;

MONTICELLO*    CLOUDY    42  32  67 SE7       30.01F
6HR MIN TEMP:  34; 6HR MAX TEMP:  42;

LOGANSPORT*    CLOUDY    41  34  75 SE14      30.04F
ROCHESTER*     CLOUDY    45  34  65 S8        30.03F
WARSAW*        CLOUDY    43  32  65 SE12G17   30.04F
AUBURN*        MOSUNNY   43  32  65 SE9       30.08F
FORT WAYNE     PTSUNNY   45  35  68 SE13      30.08F
6HR MIN TEMP:  37; 6HR MAX TEMP:  45;

HUNTINGTON*    CLOUDY    44  32  64 S9G16     30.06F
PERU/GRISSOM   PTSUNNY   44  34  70 S15       30.03F
6HR MIN TEMP:  35; 6HR MAX TEMP:  44;

MARION*        MOSUNNY   43  33  68 SE14      30.06F HAZE
6HR MIN TEMP:  23; 6HR MAX TEMP:  50;


$$
INZ028>050-171900-
CENTRAL INDIANA

CITY           SKY/WX    TMP DP  RH WIND       PRES   REMARKS
LAFAYETTE      CLOUDY    43  33  68 S9G20     30.01F
6HR MIN TEMP:  30; 6HR MAX TEMP:  43;

KOKOMO*        CLOUDY    43  33  68 S16       30.05F
6HR MIN TEMP:  35; 6HR MAX TEMP:  44;

MUNCIE*        SUNNY     47  33  58 S9        30.06F
6HR MIN TEMP:  37; 6HR MAX TEMP:  47;

INDIANAPOLIS   CLOUDY    43  32  65 SE14      30.06F
6HR MIN TEMP:  33; 6HR MAX TEMP:  43;


$$
MIZ043>046-050>051-056>058-064>065-071>073-077>080-171900-
SOUTHWEST LOWER MICHIGAN

CITY           SKY/WX    TMP DP  RH WIND       PRES   REMARKS
BATTLE CREEK   CLOUDY    39  31  72 S18       30.04F
6HR MIN TEMP:  34; 6HR MAX TEMP:  40;

BENTON HARBOR  PTSUNNY   43  31  62 SE13      29.97F
6HR MIN TEMP:  36; 6HR MAX TEMP:  43;

COLDWATER*     CLOUDY    40  32  71 S10G18    30.06F
6HR MIN TEMP:  33; 6HR MAX TEMP:  40;

HILLSDALE*     CLOUDY    37  30  75 S13G21    30.06F
HOLLAND        PTSUNNY   42  33  70 S13       30.00F
6HR MIN TEMP:  34; 6HR MAX TEMP:  42;

GRAND RAPIDS   CLOUDY    39  32  76 SE14      30.01F
6HR MIN TEMP:  32; 6HR MAX TEMP:  39;

KALAMAZOO      MOSUNNY   41  30  65 SE8G18    30.03F
6HR MIN TEMP:  36; 6HR MAX TEMP:  41;

STURGIS*       MOSUNNY   43  32  65 SE15      30.04F
THREE RIVERS*  FAIR      44  33  64 S13G18    30.04F
6HR MIN TEMP:  36; 6HR MAX TEMP:  44;


$$
OHZ001>008-015>018-024>025-171900-
NORTHWEST OHIO

CITY           SKY/WX    TMP DP  RH WIND       PRES   REMARKS
WAUSEON*       PTSUNNY   43  34  70 SE18      30.11F
DEFIANCE       PTSUNNY   43  31  62 SE10      30.10F
6HR MIN TEMP:  29; 6HR MAX TEMP:  43;

FINDLAY        SUNNY     45  31  58 SE14      30.12F
6HR MIN TEMP:  32; 6HR MAX TEMP:  45;

TOLEDO EXPRESS MOSUNNY   43  33  68 SE9G17    30.13F
6HR MIN TEMP:  36; 6HR MAX TEMP:  43;

TOLEDO METCALF MOSUNNY   43  31  62 S13       30.15F
6HR MIN TEMP:  37; 6HR MAX TEMP:  44;

LIMA           SUNNY     44  34  67 SE14      30.10F
6HR MIN TEMP:  34; 6HR MAX TEMP:  44;


$$
AND FOR LAKE MICHIGAN COASTAL AND OPEN LAKE BUOY OBSERVATIONS

STATION/POSITION TEMP    WIND        PRES    VSBY  WAVE
                 AIR SEA DIR/SP/G                  HT/PER
                 (F)     (DEG/KT/KT) (MB)    (MI)  (FT/S)
CALUMET HARBOR    42     140/ 13/ 16 1013.7F
MICHIGAN CITY     42     140/ 15/ 20   N/A
BURNS HARBOR      43     170/ 11/ 20 1015.2F
SAINT JOSEPH      43     190/  3/ 10 1014.9
SOUTH LAKE BUOY   41 50  140/ 21/ 25 1016.6          5/ 6

$$
&&




USA.gov is the U.S. government's official web portal to all federal, state and local government web resources and services.